FW1018 Weather Reports


Display with metric or nautical units.
time (UTC)temp
F
wind
direction
speed
MPH
gust
MPH
rain 1hr
in
rain 24hr
in
rain mn
in
humidity
%
barometer
mb
20200401054032 38 8 0.0 5.0 0.00 0.00 0.00 85 1013.6
20200401053532 38 3 0.0 5.0 0.00 0.00 0.00 85 1013.6
20200401053032 38 16 0.0 5.0 0.00 0.00 0.00 85 1013.6
20200401052532 38 17 3.0 5.0 0.00 0.00 0.00 85 1013.5
20200401052032 38 354 2.0 5.0 0.00 0.00 0.00 85 1013.5
20200401051532 38 13 0.0 5.0 0.00 0.00 0.00 85 1013.5
20200401051031 38 21 0.0 5.0 0.00 0.00 0.00 85 1013.6
20200401050531 38 25 2.0 5.0 0.00 0.00 0.00 85 1013.6
20200401050031 38 51 0.0 5.0 0.00 0.00 0.00 85 1013.6
20200401045531 38 31 0.0 5.0 0.00 0.00 0.00 85 1013.7
20200401045030 38 25 4.0 7.0 0.00 0.00 0.00 85 1013.7
20200401044530 38 27 5.0 7.0 0.00 0.00 0.00 85 1013.7
20200401044031 38 35 5.0 10.0 0.00 0.00 0.00 85 1013.7
20200401043530 38 17 3.0 10.0 0.00 0.00 0.00 85 1013.7
20200401043030 38 27 5.0 7.0 0.00 0.00 0.00 85 1013.7
20200401042530 38 25 5.0 7.0 0.00 0.00 0.00 85 1013.7
20200401042030 38 359 5.0 7.0 0.00 0.00 0.00 85 1013.7
20200401041531 38 25 5.0 7.0 0.00 0.00 0.00 85 1013.7
20200401041030 38 24 5.0 7.0 0.00 0.00 0.00 85 1013.7
20200401040529 38 11 0.0 6.0 0.00 0.00 0.00 85 1013.7
20200401040030 38 13 5.0 7.0 0.00 0.00 0.00 85 1013.7
20200401035530 38 18 4.0 7.0 0.00 0.00 0.00 85 1013.7
20200401035029 38 28 5.0 8.0 0.00 0.00 0.00 85 1013.7
20200401034529 38 38 5.0 8.0 0.00 0.00 0.00 85 1013.7
20200401034029 39 0 0.0 7.0 0.00 0.00 0.00 85 1013.8
20200401033529 39 21 3.0 7.0 0.00 0.00 0.00 85 1013.8
20200401033029 39 23 5.0 7.0 0.00 0.00 0.00 85 1013.8
20200401032528 39 11 0.0 5.0 0.00 0.00 0.00 85 1013.9
20200401032028 39 4 3.0 5.0 0.00 0.00 0.00 85 1013.9
20200401031528 39 346 0.0 6.0 0.00 0.00 0.00 85 1013.9
20200401031028 39 0 2.0 7.0 0.00 0.00 0.00 85 1013.8
20200401030528 39 20 0.0 7.0 0.00 0.00 0.00 85 1013.8
20200401030028 39 0 0.0 7.0 0.00 0.00 0.00 85 1013.8
20200401025528 39 333 1.0 9.0 0.00 0.00 0.00 85 1013.6
20200401025027 39 32 4.0 9.0 0.00 0.00 0.00 85 1013.6
20200401024527 39 8 4.0 10.0 0.00 0.00 0.00 85 1013.6
20200401024027 39 41 7.0 10.0 0.00 0.00 0.00 85 1013.6
20200401023527 39 21 6.0 7.0 0.00 0.00 0.00 85 1013.6
20200401023027 39 16 1.0 7.0 0.00 0.00 0.00 85 1013.6
20200401022527 39 38 7.0 7.0 0.00 0.00 0.00 85 1013.4
20200401022027 39 346 5.0 12.0 0.00 0.00 0.00 85 1013.4
20200401021527 39 34 6.0 12.0 0.00 0.00 0.00 85 1013.4
20200401021026 39 17 2.0 8.0 0.00 0.00 0.00 85 1013.5
20200401020526 39 13 3.0 7.0 0.00 0.00 0.00 85 1013.5
20200401020026 39 10 4.0 8.0 0.00 0.00 0.00 85 1013.5
20200401015526 39 23 7.0 10.0 0.00 0.00 0.00 85 1013.5
20200401015026 39 21 5.0 11.0 0.00 0.00 0.00 85 1013.5
20200401014526 39 10 5.0 11.0 0.00 0.00 0.00 85 1013.5
20200401014026 39 38 3.0 10.0 0.00 0.00 0.00 85 1013.4
20200401013525 39 41 6.0 10.0 0.00 0.00 0.00 85 1013.4
20200401013025 39 21 6.0 10.0 0.00 0.00 0.00 85 1013.4
20200401012525 39 59 7.0 13.0 0.00 0.00 0.00 85 1013.2
20200401012025 39 23 2.0 13.0 0.00 0.00 0.00 85 1013.2
20200401011525 39 7 10.0 13.0 0.00 0.00 0.00 85 1013.2
20200401011025 39 3 5.0 10.0 0.00 0.00 0.00 85 1013.2
20200401010525 39 17 4.0 10.0 0.00 0.00 0.00 85 1013.2
20200401010024 39 17 5.0 10.0 0.00 0.00 0.00 85 1013.2
20200401005525 39 349 2.0 12.0 0.00 0.00 0.00 85 1013.2
20200401005024 39 55 7.0 12.0 0.00 0.00 0.00 85 1013.2
20200401004524 39 4 5.0 10.0 0.00 0.00 0.00 85 1013.2
20200401004024 39 332 3.0 7.0 0.00 0.00 0.00 85 1013.3
20200401003524 39 347 0.0 7.0 0.00 0.00 0.00 85 1013.3
20200401003024 39 354 2.0 7.0 0.00 0.00 0.00 85 1013.3
20200401002524 39 10 2.0 7.0 0.00 0.00 0.00 85 1013.2
20200401002024 39 349 2.0 7.0 0.00 0.00 0.00 85 1013.2
20200401001523 39 354 0.0 9.0 0.00 0.00 0.00 85 1013.2
20200401001029 39 352 0.0 10.0 0.00 0.00 0.00 85 1013.2
20200401000527 39 8 5.0 10.0 0.00 0.00 0.00 85 1013.2
20200401000023 39 6 5.0 7.0 0.00 0.00 0.00 85 1013.2
20200331235523 39 21 6.0 8.0 0.00 0.00 0.00 85 1013.2
20200331235023 39 16 2.0 8.0 0.00 0.00 0.00 85 1013.2
20200331234523 39 8 5.0 8.0 0.00 0.00 0.00 85 1013.2
20200331234023 39 3 0.0 10.0 0.00 0.00 0.00 85 1013.1
20200331233523 39 0 2.0 10.0 0.00 0.00 0.00 85 1013.1
20200331233022 39 27 10.0 10.0 0.00 0.00 0.00 85 1013.1
20200331232522 39 10 7.0 12.0 0.00 0.00 0.00 85 1013.2
20200331232022 39 13 7.0 12.0 0.00 0.00 0.00 85 1013.2
20200331231522 39 8 6.0 10.0 0.00 0.00 0.00 85 1013.2
20200331231022 39 347 5.0 10.0 0.00 0.00 0.00 85 1013.2
20200331230521 39 3 5.0 7.0 0.00 0.00 0.00 85 1013.2
20200331230021 39 0 2.0 10.0 0.00 0.00 0.00 85 1013.2
20200331225521 39 18 6.0 12.0 0.00 0.00 0.00 85 1013.2
20200331225021 39 8 7.0 12.0 0.00 0.00 0.00 85 1013.2
20200331224521 39 10 7.0 11.0 0.00 0.00 0.00 85 1013.2
20200331224021 39 17 7.0 13.0 0.00 0.00 0.00 84 1013.1
20200331223521 39 13 10.0 13.0 0.00 0.00 0.00 84 1013.1
20200331223021 40 0 7.0 12.0 0.00 0.00 0.00 85 1013.1
20200331222521 40 342 5.0 12.0 0.00 0.00 0.00 81 1013.1
20200331222021 40 10 5.0 12.0 0.00 0.00 0.00 82 1013.1
20200331221520 40 353 5.0 12.0 0.00 0.00 0.00 81 1013.1
20200331221020 40 10 5.0 10.0 0.00 0.00 0.00 82 1013.1
20200331220520 40 0 5.0 10.0 0.00 0.00 0.00 83 1013.1
20200331220020 40 0 7.0 10.0 0.00 0.00 0.00 81 1013.1
20200331215520 40 51 6.0 10.0 0.00 0.00 0.00 80 1013.1
20200331215020 40 3 10.0 10.0 0.00 0.00 0.00 82 1013.1
20200331214519 40 21 7.0 10.0 0.00 0.00 0.00 79 1013.1
20200331214019 40 38 7.0 12.0 0.00 0.00 0.00 80 1013.0
20200331213519 40 21 10.0 13.0 0.00 0.00 0.00 79 1013.0
20200331213019 40 17 5.0 14.0 0.00 0.00 0.00 79 1013.0
20200331212519 40 352 10.0 14.0 0.00 0.00 0.00 78 1012.9
20200331212019 40 0 4.0 11.0 0.00 0.00 0.00 78 1012.9
20200331211519 40 31 10.0 11.0 0.00 0.00 0.00 77 1012.9
20200331211018 40 359 6.0 12.0 0.00 0.00 0.00 78 1012.7
20200331210519 40 359 5.0 12.0 0.00 0.00 0.00 75 1012.7
20200331210048 40 7 5.0 14.0 0.00 0.00 0.00 75 1012.7
20200331205519 40 4 6.0 14.0 0.00 0.00 0.00 74 1012.6
20200331205018 40 11 10.0 12.0 0.00 0.00 0.00 72 1012.6
20200331204518 40 13 6.0 12.0 0.00 0.00 0.00 74 1012.6
20200331204018 40 11 7.0 12.0 0.00 0.00 0.00 73 1012.5
20200331203518 41 1 5.0 12.0 0.00 0.00 0.00 73 1012.6
20200331203018 41 359 5.0 11.0 0.00 0.00 0.00 72 1012.6
20200331202517 41 16 9.0 12.0 0.00 0.00 0.00 71 1012.5
20200331202017 41 25 10.0 12.0 0.00 0.00 0.00 71 1012.5
20200331201517 41 49 5.0 12.0 0.00 0.00 0.00 73 1012.5
20200331201017 41 8 5.0 12.0 0.00 0.00 0.00 72 1012.7
20200331200517 41 20 2.0 8.0 0.00 0.00 0.00 73 1012.7
20200331200017 40 17 2.0 7.0 0.00 0.00 0.00 74 1012.6
20200331195516 40 54 6.0 10.0 0.00 0.00 0.00 73 1012.8
20200331195016 40 44 5.0 11.0 0.00 0.00 0.00 73 1012.8
20200331194516 40 38 5.0 11.0 0.00 0.00 0.00 74 1012.8
20200331194016 40 359 7.0 11.0 0.00 0.00 0.00 74 1012.8
20200331193516 40 0 2.0 10.0 0.00 0.00 0.00 72 1012.8
20200331193016 40 6 5.0 10.0 0.00 0.00 0.00 74 1012.8
20200331192515 40 1 5.0 10.0 0.00 0.00 0.00 73 1012.8
20200331192016 40 3 6.0 10.0 0.00 0.00 0.00 72 1012.8
20200331191515 40 354 0.0 10.0 0.00 0.00 0.00 74 1012.8
20200331191015 40 14 6.0 11.0 0.00 0.00 0.00 73 1012.8
20200331190515 40 47 8.0 11.0 0.00 0.00 0.00 73 1012.8
20200331190015 40 0 2.0 10.0 0.00 0.00 0.00 73 1012.8
20200331185515 40 14 4.0 10.0 0.00 0.00 0.00 76 1012.9
20200331185015 40 23 6.0 7.0 0.00 0.00 0.00 74 1012.9
20200331184515 40 31 5.0 7.0 0.00 0.00 0.00 73 1012.9
20200331184015 40 18 2.0 10.0 0.00 0.00 0.00 75 1013.0
20200331183514 40 48 2.0 10.0 0.00 0.00 0.00 72 1013.0
20200331183015 40 88 6.0 7.0 0.00 0.00 0.00 75 1013.0
20200331182514 40 0 5.0 10.0 0.00 0.00 0.00 75 1013.2
20200331182014 39 42 6.0 10.0 0.00 0.00 0.00 74 1013.2
20200331181514 39 34 4.0 10.0 0.00 0.00 0.00 75 1013.2
20200331181014 39 0 7.0 7.0 0.00 0.00 0.00 75 1013.2
20200331180514 39 17 4.0 10.0 0.00 0.00 0.00 75 1013.2
20200331180043 39 61 3.0 10.0 0.00 0.00 0.00 76 1013.2
20200331175514 39 59 6.0 10.0 0.00 0.00 0.00 75 1013.2
20200331175013 39 6 2.0 10.0 0.00 0.00 0.00 76 1013.2
20200331174513 39 44 3.0 10.0 0.00 0.00 0.00 74 1013.2
20200331174013 39 62 2.0 10.0 0.00 0.00 0.00 75 1013.4
20200331173513 39 48 5.0 8.0 0.00 0.00 0.00 77 1013.4
20200331173013 39 41 5.0 10.0 0.00 0.00 0.00 73 1013.4
20200331172513 39 54 5.0 12.0 0.00 0.00 0.00 73 1013.5
20200331172012 39 54 7.0 12.0 0.00 0.00 0.00 73 1013.5
20200331171512 39 25 9.0 10.0 0.00 0.00 0.00 72 1013.5
20200331171012 40 49 4.0 7.0 0.00 0.00 0.00 71 1013.7
20200331170512 40 30 0.0 10.0 0.00 0.00 0.00 73 1013.7
20200331170042 39 56 5.0 10.0 0.00 0.00 0.00 72 1013.6
20200331165511 39 45 5.0 10.0 0.00 0.00 0.00 73 1013.6
20200331165011 39 45 6.0 10.0 0.00 0.00 0.00 72 1013.6
20200331164512 40 73 7.0 8.0 0.00 0.00 0.00 72 1013.6
20200331164012 40 359 5.0 8.0 0.00 0.00 0.00 73 1013.7
20200331163511 40 8 7.0 10.0 0.00 0.00 0.00 73 1013.7
20200331163011 40 32 6.0 10.0 0.00 0.00 0.00 73 1013.7
20200331162511 40 64 3.0 6.0 0.00 0.00 0.00 77 1013.9
20200331162011 39 40 0.0 7.0 0.00 0.00 0.00 75 1013.9
20200331161510 39 62 5.0 7.0 0.00 0.00 0.00 75 1013.9
20200331161011 39 0 2.0 7.0 0.00 0.00 0.00 75 1014.0
20200331160510 39 28 5.0 8.0 0.00 0.00 0.00 75 1014.0
20200331160040 39 27 2.0 10.0 0.00 0.00 0.00 72 1014.0
20200331155510 39 38 2.0 10.0 0.00 0.00 0.00 76 1014.0
20200331155010 39 25 6.0 10.0 0.00 0.00 0.00 77 1014.0
20200331154510 39 48 5.0 10.0 0.00 0.00 0.00 78 1014.0
20200331154010 39 96 5.0 10.0 0.00 0.00 0.00 78 1014.0
20200331153509 39 65 2.0 10.0 0.00 0.00 0.00 81 1014.0
20200331153010 39 0 7.0 10.0 0.00 0.00 0.00 79 1014.0
20200331152509 39 59 2.0 10.0 0.00 0.00 0.00 80 1014.2
20200331152009 39 28 7.0 10.0 0.00 0.00 0.00 83 1014.2
20200331151509 39 47 5.0 7.0 0.00 0.00 0.00 81 1014.2
20200331151009 39 49 6.0 7.0 0.00 0.00 0.00 84 1014.1
20200331150509 39 35 2.0 7.0 0.00 0.00 0.00 85 1014.1
20200331150039 39 20 5.0 9.0 0.00 0.00 0.00 85 1014.1
20200331145509 38 35 4.0 10.0 0.00 0.00 0.00 85 1014.2
20200331145008 39 25 5.0 10.0 0.00 0.00 0.00 85 1014.2
20200331144509 39 25 7.0 7.0 0.00 0.00 0.00 85 1014.2
20200331144008 38 25 6.0 7.0 0.00 0.00 0.00 85 1014.3
20200331143508 38 35 2.0 7.0 0.00 0.00 0.00 85 1014.3
20200331143038 38 58 5.0 8.0 0.00 0.00 0.00 85 1014.3
20200331142538 38 6 4.0 8.0 0.00 0.00 0.00 85 1014.3
20200331142037 38 61 3.0 8.0 0.00 0.00 0.00 85 1014.3
20200331141507 38 41 2.0 10.0 0.00 0.00 0.00 85 1014.3
20200331141007 38 35 7.0 10.0 0.00 0.00 0.00 85 1014.4
20200331140507 38 37 5.0 10.0 0.00 0.00 0.00 85 1014.4
20200331140037 38 349 5.0 10.0 0.00 0.00 0.00 85 1014.4
20200331135507 38 0 7.0 10.0 0.00 0.00 0.00 85 1014.3
20200331135007 38 4 4.0 7.0 0.00 0.00 0.00 85 1014.3
20200331134537 38 3 5.0 7.0 0.00 0.00 0.00 85 1014.3
20200331134037 38 35 5.0 7.0 0.00 0.00 0.00 85 1014.3
20200331133536 38 25 7.0 7.0 0.00 0.00 0.00 85 1014.3
20200331133036 38 0 2.0 5.0 0.00 0.00 0.00 85 1014.3
20200331132536 38 7 3.0 5.0 0.00 0.00 0.00 85 1014.3
20200331132036 38 343 0.0 5.0 0.00 0.00 0.00 85 1014.3
20200331131536 38 47 0.0 5.0 0.00 0.00 0.00 85 1014.3
20200331131036 38 47 0.0 5.0 0.00 0.00 0.00 85 1014.2
20200331130536 38 47 0.0 5.0 0.00 0.00 0.00 85 1014.2
20200331130035 37 47 1.0 5.0 0.00 0.00 0.00 85 1014.2
20200331125535 37 90 2.0 5.0 0.00 0.00 0.00 85 1014.3
20200331125035 37 31 5.0 5.0 0.00 0.00 0.00 85 1014.3
20200331124535 37 31 0.0 5.0 0.00 0.00 0.00 85 1014.3
20200331124035 37 20 2.0 8.0 0.00 0.00 0.00 85 1014.2
20200331123535 37 40 2.0 8.0 0.00 0.00 0.00 85 1014.2
20200331123035 37 38 5.0 12.0 0.00 0.00 0.00 85 1014.2
20200331122535 37 52 5.0 12.0 0.00 0.00 0.00 85 1014.3
20200331122034 37 1 5.0 10.0 0.00 0.00 0.00 85 1014.3
20200331121535 37 32 5.0 12.0 0.00 0.00 0.00 85 1014.3
20200331121034 37 58 9.0 12.0 0.00 0.00 0.00 85 1014.3
20200331120534 37 52 7.0 12.0 0.00 0.00 0.00 85 1014.3
20200331120034 37 38 7.0 12.0 0.00 0.00 0.00 85 1014.3
20200331115534 37 27 9.0 11.0 0.00 0.00 0.00 85 1014.2
20200331115034 37 4 6.0 10.0 0.00 0.00 0.00 85 1014.2
20200331114533 37 55 7.0 10.0 0.00 0.00 0.00 85 1014.2
20200331114034 37 38 8.0 8.0 0.00 0.00 0.00 85 1014.2
20200331113534 37 21 3.0 10.0 0.00 0.00 0.00 85 1014.2
20200331113034 37 47 6.0 10.0 0.00 0.00 0.00 85 1014.2
20200331112533 37 48 10.0 11.0 0.00 0.00 0.00 85 1014.3
20200331112033 37 54 6.0 14.0 0.00 0.00 0.00 85 1014.3
20200331111533 37 37 7.0 14.0 0.00 0.00 0.00 85 1014.3
20200331111033 37 59 10.0 13.0 0.00 0.00 0.00 85 1014.2
20200331110533 37 37 8.0 13.0 0.00 0.00 0.00 85 1014.2
20200331110033 37 66 10.0 12.0 0.00 0.00 0.00 85 1014.2
20200331105532 37 64 6.0 11.0 0.00 0.00 0.00 85 1014.3
20200331105032 37 44 6.0 10.0 0.00 0.00 0.00 85 1014.3
20200331104532 37 47 6.0 12.0 0.00 0.00 0.00 85 1014.3
20200331104032 37 66 7.0 14.0 0.00 0.00 0.00 85 1014.2
20200331103532 37 42 11.0 14.0 0.00 0.00 0.00 85 1014.2
20200331103032 37 61 11.0 14.0 0.00 0.00 0.00 85 1014.2
20200331102531 37 44 10.0 14.0 0.00 0.00 0.00 85 1014.1
20200331102031 37 58 11.0 13.0 0.00 0.00 0.00 85 1014.1
20200331101531 37 49 6.0 13.0 0.00 0.00 0.00 85 1014.1
20200331101031 37 35 8.0 12.0 0.00 0.00 0.00 85 1014.1
20200331100531 37 37 11.0 11.0 0.00 0.00 0.00 85 1014.1
20200331100031 37 56 11.0 11.0 0.00 0.00 0.00 85 1014.1
20200331095531 37 59 8.0 12.0 0.00 0.00 0.00 85 1014.2
20200331095030 37 45 7.0 12.0 0.00 0.00 0.00 85 1014.2
20200331094530 37 40 11.0 12.0 0.00 0.00 0.00 85 1014.2
20200331094030 37 65 6.0 11.0 0.00 0.00 0.00 85 1014.3
20200331093530 37 47 7.0 12.0 0.00 0.00 0.00 85 1014.3
20200331093030 37 55 8.0 12.0 0.00 0.00 0.00 85 1014.3
20200331092531 37 56 5.0 11.0 0.00 0.00 0.00 85 1014.5
20200331091030 37 54 10.0 13.0 0.00 0.00 0.00 85 1014.4
20200331090530 37 52 7.0 14.0 0.00 0.00 0.00 85 1014.4
20200331090029 38 64 10.0 14.0 0.00 0.00 0.00 85 1014.4
20200331085529 38 54 7.0 12.0 0.00 0.00 0.00 85 1014.6
20200331085029 38 51 5.0 12.0 0.00 0.00 0.00 85 1014.6
20200331084529 37 64 10.0 16.0 0.00 0.00 0.00 85 1014.6
20200331084028 37 45 5.0 16.0 0.00 0.00 0.00 85 1014.7
20200331083529 37 55 11.0 14.0 0.00 0.00 0.00 85 1014.7
20200331083028 37 54 8.0 17.0 0.00 0.00 0.00 85 1014.7
20200331082528 37 55 14.0 17.0 0.00 0.00 0.00 85 1014.8
20200331082028 37 56 9.0 14.0 0.00 0.00 0.00 85 1014.8
20200331081528 37 68 7.0 17.0 0.00 0.00 0.00 85 1014.8
20200331081028 37 44 10.0 17.0 0.00 0.00 0.00 85 1014.8
20200331080528 38 80 7.0 13.0 0.00 0.00 0.00 85 1014.8
20200331080028 38 61 11.0 13.0 0.00 0.00 0.00 85 1014.8
20200331075528 38 47 12.0 14.0 0.00 0.00 0.00 85 1015.0
20200331075027 38 48 8.0 14.0 0.00 0.00 0.00 85 1015.0
20200331074528 38 75 6.0 12.0 0.00 0.00 0.00 85 1015.0
20200331074027 39 58 7.0 11.0 0.00 0.00 0.00 85 1015.3
20200331073527 39 49 7.0 11.0 0.00 0.00 0.00 85 1015.3
20200331073027 39 55 7.0 12.0 0.00 0.00 0.00 85 1015.3
20200331072527 39 55 7.0 14.0 0.00 0.00 0.00 85 1015.2
20200331072027 39 37 10.0 14.0 0.00 0.00 0.00 85 1015.2
20200331071526 40 58 5.0 12.0 0.00 0.00 0.00 85 1015.2
20200331071026 40 52 4.0 10.0 0.00 0.00 0.00 85 1015.0
20200331070526 40 86 3.0 12.0 0.00 0.00 0.00 85 1015.0
20200331070026 40 65 7.0 12.0 0.00 0.00 0.00 85 1015.0
20200331065526 40 79 7.0 12.0 0.00 0.00 0.00 85 1014.8
20200331065026 41 47 5.0 10.0 0.00 0.00 0.00 85 1014.8
20200331064525 41 51 7.0 10.0 0.00 0.00 0.00 85 1014.8
20200331064025 41 65 5.0 10.0 0.00 0.00 0.00 85 1015.0
20200331063533 41 62 7.0 10.0 0.00 0.00 0.00 85 1015.0
20200331063027 41 49 7.0 8.0 0.00 0.00 0.00 85 1015.0
20200331062525 41 40 5.0 10.0 0.00 0.00 0.00 85 1014.9
20200331062025 41 37 5.0 10.0 0.00 0.00 0.00 85 1014.9
20200331061525 42 78 0.0 2.0 0.00 0.00 0.00 85 1015.0
20200331061025 42 78 2.0 2.0 0.00 0.00 0.00 85 1015.1
20200331060525 42 78 0.0 0.0 0.00 0.00 0.00 85 1015.1
20200331060025 42 78 0.0 0.0 0.00 0.00 0.00 85 1015.1
20200331055524 42 78 0.0 0.0 0.00 0.00 0.00 85 1014.9
20200331055024 43 78 0.0 0.0 0.00 0.00 0.00 85 1014.9
20200331054524 43 78 0.0 0.0 0.00 0.00 0.00 85 1014.9